{"data":{"norad_id":61701,"epoch":"2026-09-21T10:22:07.184640Z","epoch_age_seconds":107905,"freshness":"FRESH","line1":"1 61701U 24195Q   26264.43202760  .00001140  00000+0  44874-4 0  9996","line2":"2 61701  53.1608 321.6808 0001390  84.3248 275.7913 15.34403797107218","mean_motion":15.34403797,"eccentricity":0.000139,"inclination_deg":53.1608,"raan_deg":321.6808,"arg_perigee_deg":84.3248,"mean_anomaly_deg":275.7913,"bstar":4.4874e-5,"rev_number":10721,"period_min":93.847525847852,"perigee_km":461.74107952149,"apogee_km":463.64282997091,"semimajor_km":6840.8289547462,"source":"CELESTRAK","updated_at":"2026-09-22T09:00:49.408582Z"}}